Thermal, CA

3:39 AM PDT on May 28, 2018 (GMT -0700)
Desert Resorts Regional

Weather History for KTRM - March, 2013

Change the Weather History Date:

Tuesday, March 19, 2013

  Actual Average Record
Temperature  
Mean Temperature 78 °F 65 °F  
Max Temperature 92 °F 82 °F 101 °F (1997)
Min Temperature 64 °F 48 °F 38 °F (1951)
Degree Days  
Heating Degree Days 0 3  
Month to date heating degree days 33 70  
Since 1 July heating degree days 1121 1135  
Cooling Degree Days 13 2  
Month to date cooling degree days 83 29  
Year to date cooling degree days 83 41  
Growing Degree Days 28 (Base 50)    
Moisture  
Dew Point 44 °F    
Average Humidity 33    
Maximum Humidity 52    
Minimum Humidity 14    
Precipitation  
Precipitation 0.00 in 0.01 in 0.42 in (1994)
Month to date precipitation 0.07 0.30  
Year to date precipitation 0.44 1.63  
Since 1 July precipitation 2.62  
Snow  
Snow 0.00 in - - ()
Month to date snowfall 0.0  
Year to date snowfall 0.0  
Snow Depth 0.00 in    
Sea Level Pressure  
Sea Level Pressure 29.91 in    
Wind  
Wind Speed 8 mph (NW)    
Max Wind Speed 20 mph    
Max Gust Speed 26 mph    
Visibility 9 miles    
Events      
T = Trace of Precipitation, MM = Missing Value Source: NWS Daily Summary

Daily Weather History Graph

Daily Weather History Graph

Search for Another Location

Airport or City:

Astronomy

Mar. 19, 2013 Rise Set
Actual Time 6:49 AM PDT 6:55 PM PDT
Civil Twilight 6:24 AM PDT 7:20 PM PDT
Nautical Twilight 5:55 AM PDT 7:49 PM PDT
Astronomical Twilight 5:26 AM PDT 8:18 PM PDT
Moon 11:58 AM PDT (3/19) 1:30 AM PDT (3/19)
Length of Visible Light 12h 56m
Length of Day
12h 06m
Waxing Crescent, 51% of the Moon is Illuminated
Mar 19
Waxing Crescent
Mar 27
Full
Apr 2
Last Quarter
Apr 10
New
Apr 18
First Quarter

Hourly Weather History & Observations

Time (PDT) Temp. Dew Point Humidity Pressure Visibility Wind Dir Wind Speed Gust Speed Precip Events Conditions
12:52 AM 69.1 °F 46.9 °F 45% 29.88 in 8.0 mi NNW 10.4 mph 20.7 mph N/A   Clear
1:52 AM 68.0 °F 46.0 °F 45% 29.87 in 8.0 mi NW 10.4 mph - N/A   Clear
2:52 AM 66.9 °F 46.9 °F 49% 29.87 in 7.0 mi WNW 9.2 mph - N/A   Clear
3:52 AM 66.9 °F 48.0 °F 51% 29.86 in 8.0 mi NW 6.9 mph - N/A   Clear
4:52 AM 66.0 °F 48.0 °F 52% 29.88 in 7.0 mi NW 15.0 mph 24.2 mph N/A   Clear
5:52 AM 66.0 °F 48.0 °F 52% 29.89 in 7.0 mi NW 9.2 mph - N/A   Clear
6:52 AM 66.9 °F 45.0 °F 45% 29.90 in 9.0 mi NW 17.3 mph 21.9 mph N/A   Clear
7:52 AM 66.0 °F 46.9 °F 50% 29.92 in 7.0 mi Calm Calm - N/A   Clear
8:52 AM 71.1 °F 46.9 °F 42% 29.94 in 8.0 mi Calm Calm - N/A   Clear
9:52 AM 73.9 °F 46.0 °F 37% 29.95 in 9.0 mi Calm Calm - N/A   Clear
10:52 AM 78.1 °F 46.9 °F 33% 29.95 in 10.0 mi Variable 6.9 mph - N/A   Clear
11:52 AM 80.1 °F 48.0 °F 32% 29.94 in 10.0 mi Calm Calm - N/A   Clear
12:52 PM 84.0 °F 45.0 °F 25% 29.92 in 10.0 mi NNE 4.6 mph - N/A   Clear
1:52 PM 88.0 °F 39.0 °F 18% 29.92 in 10.0 mi Variable 4.6 mph - N/A   Clear
2:52 PM 89.1 °F 34.0 °F 14% 29.89 in 10.0 mi Variable 5.8 mph - N/A   Clear
3:52 PM 91.0 °F 36.0 °F 14% 29.86 in 10.0 mi NW 5.8 mph - N/A   Clear
4:52 PM 89.1 °F 34.0 °F 14% 29.89 in 10.0 mi WNW 4.6 mph - N/A   Clear
5:52 PM 87.1 °F 37.0 °F 17% 29.87 in 10.0 mi NNW 9.2 mph - N/A   Clear
6:52 PM 81.0 °F 39.9 °F 23% 29.88 in 10.0 mi NNW 10.4 mph - N/A   Clear
8:52 PM 77.0 °F 44.1 °F 31% 29.92 in 10.0 mi NNW 17.3 mph 26.5 mph N/A   Clear
9:52 PM 75.9 °F 46.0 °F 35% 29.94 in 10.0 mi NNW 15.0 mph - N/A   Clear
10:52 PM 73.9 °F 45.0 °F 35% 29.96 in 10.0 mi NNW 13.8 mph - N/A   Clear
11:52 PM 73.0 °F 41.0 °F 31% 29.95 in 10.0 mi NNW 9.2 mph - N/A   Clear